VK3GY-13 Weather Reports


time (UTC)temp
C
wind
direction
speed
KPH
gust
KPH
rain 1hr
cm
rain 24hr
cm
rain mn
cm
humidity
%
barometer
mb
20260505123009 13 257 1.6 4.8 0.00 0.00 0.00 81 1021.2
20260505122009 13 257 1.6 4.8 0.00 0.00 0.00 81 1021.2
20260505121009 13 257 0.0 1.6 0.00 0.00 0.00 82 1021.3
20260505120009 13 257 0.0 4.8 0.00 0.00 0.00 82 1021.3
20260505115009 13 257 1.6 4.8 0.00 0.00 0.00 82 1021.3
20260505114009 13 257 0.0 4.8 0.00 0.00 0.00 82 1021.3
20260505113009 13 197 3.2 4.8 0.00 0.00 0.00 82 1021.3
20260505112009 13 197 1.6 3.2 0.00 0.00 0.00 82 1021.3
20260505111009 13 197 0.0 4.8 0.00 0.00 0.00 82 1021.4
20260505102011 13 197 0.0 3.2 0.00 0.00 0.00 82 1021.2
20260505101009 13 197 1.6 4.8 0.00 0.00 0.00 82 1021.3
20260505100009 13 197 0.0 4.8 0.00 0.00 0.00 82 1021.3
20260505095009 13 197 1.6 4.8 0.00 0.00 0.00 82 1021.4
20260505094009 13 197 0.0 3.2 0.00 0.00 0.00 81 1021.4
20260505093009 13 197 0.0 4.8 0.00 0.00 0.00 82 1021.3
20260505092009 13 197 1.6 4.8 0.00 0.00 0.00 82 1021.3
20260505091009 13 197 1.6 4.8 0.00 0.00 0.00 82 1021.2
20260505090009 13 197 1.6 4.8 0.00 0.00 0.00 82 1021.2
20260505085008 13 197 0.0 3.2 0.00 0.00 0.00 82 1021.1
20260505084009 13 197 1.6 3.2 0.00 0.00 0.00 82 1021.0
20260505083009 13 197 0.0 3.2 0.00 0.00 0.00 82 1021.0
20260505082009 13 197 0.0 1.6 0.00 0.00 0.00 82 1020.9
20260505081009 13 197 0.0 1.6 0.00 0.00 0.00 82 1020.7
20260505080008 13 197 1.6 1.6 0.00 0.00 0.00 82 1020.6
20260505075009 13 197 1.6 4.8 0.00 0.00 0.00 82 1020.5
20260505074009 14 197 0.0 1.6 0.00 0.00 0.00 82 1020.4
20260505073009 14 197 1.6 3.2 0.00 0.00 0.00 81 1020.3
20260505072009 14 197 1.6 3.2 0.00 0.00 0.00 81 1020.2
20260505071009 14 197 1.6 4.8 0.00 0.00 0.00 81 1020.1
20260505070009 14 197 1.6 4.8 0.00 0.00 0.00 80 1020.1
20260505065009 14 197 1.6 4.8 0.00 0.00 0.00 80 1020.1
20260505064010 14 197 1.6 11.3 0.00 0.00 0.00 80 1019.9
20260505063009 15 195 4.8 11.3 0.00 0.00 0.00 79 1019.9
20260505062009 15 210 4.8 9.7 0.00 0.00 0.00 78 1019.9
20260505061009 15 223 9.7 14.5 0.00 0.00 0.00 76 1019.9
20260505060009 15 246 4.8 8.0 0.00 0.00 0.00 73 1019.7
20260505055009 15 248 1.6 4.8 0.00 0.00 0.00 73 1019.6
20260505054009 15 248 3.2 8.0 0.00 0.00 0.00 73 1019.5
20260505053009 15 248 4.8 11.3 0.00 0.00 0.00 73 1019.4
20260505052010 15 244 4.8 11.3 0.00 0.00 0.00 73 1019.4
20260505051009 15 243 3.2 12.9 0.00 0.00 0.00 74 1019.2
20260505041009 15 251 6.4 19.3 0.00 0.00 0.00 76 1018.8
20260505040009 14 229 8.0 20.9 0.00 0.00 0.00 77 1018.7
20260505035009 14 236 8.0 19.3 0.00 0.00 0.00 79 1018.7
20260505034009 14 245 6.4 19.3 0.00 0.00 0.00 79 1018.6
20260505033009 14 236 11.3 24.1 0.00 0.00 0.00 78 1018.7
20260505032009 15 242 11.3 27.4 0.00 0.00 0.00 75 1018.7
20260505031009 15 255 11.3 20.9 0.00 0.00 0.00 74 1018.6
20260505030009 15 268 8.0 20.9 0.00 0.00 0.00 73 1018.6
20260505025009 15 271 9.7 19.3 0.00 0.00 0.00 73 1018.6
20260505024009 16 265 14.5 27.4 0.00 0.00 0.00 71 1018.5
20260505023009 16 261 11.3 20.9 0.00 0.00 0.00 73 1018.6
20260505022009 16 272 11.3 20.9 0.00 0.00 0.00 75 1018.6
20260505021009 15 275 12.9 25.7 0.00 0.00 0.00 76 1018.6
20260505020009 15 254 9.7 24.1 0.00 0.00 0.00 77 1018.7
20260505015009 15 247 11.3 24.1 0.00 0.00 0.00 77 1018.8
20260505014009 15 265 9.7 22.5 0.00 0.00 0.00 77 1018.7
20260505013009 15 247 9.7 22.5 0.00 0.00 0.00 79 1018.6
20260505012010 15 271 11.3 22.5 0.00 0.00 0.00 80 1018.7
20260505011009 15 244 9.7 22.5 0.00 0.03 0.00 81 1018.7
20260505010009 15 269 9.7 22.5 0.00 0.03 0.00 81 1018.7
20260505005009 15 249 9.7 22.5 0.00 0.03 0.00 82 1018.6
20260505004009 14 259 9.7 19.3 0.00 0.03 0.00 83 1018.5
20260505003010 14 255 9.7 22.5 0.00 0.03 0.00 84 1018.4
20260505002010 14 277 14.5 22.5 0.00 0.03 0.00 86 1018.2
20260505001009 13 287 11.3 20.9 0.00 0.03 0.00 88 1018.2
20260505000009 13 240 6.4 20.9 0.00 0.03 0.00 88 1018.2
20260504235009 13 270 8.0 19.3 0.00 0.03 0.00 88 1018.1
20260504234009 13 259 8.0 20.9 0.00 0.03 0.00 88 1018.1
20260504233009 13 259 6.4 22.5 0.00 0.03 0.00 88 1018.1
20260504232009 13 265 8.0 20.9 0.00 0.03 0.00 88 1017.9
20260504231009 13 257 8.0 20.9 0.00 0.03 0.00 88 1017.7
20260504230009 13 277 8.0 19.3 0.00 0.03 0.00 88 1017.6
20260504225009 13 281 8.0 20.9 0.00 0.03 0.00 89 1017.6
20260504224008 13 268 9.7 20.9 0.00 0.03 0.00 88 1017.4
20260504223009 13 267 12.9 20.9 0.00 0.03 0.00 88 1017.3
20260504222009 13 270 9.7 20.9 0.00 0.03 0.00 88 1017.1
20260504221009 13 280 11.3 19.3 0.00 0.03 0.00 88 1016.9
20260504220009 13 279 9.7 22.5 0.00 0.03 0.00 88 1016.7
20260504215009 13 282 9.7 20.9 0.00 0.03 0.00 88 1016.5
20260504214008 13 296 9.7 14.5 0.00 0.03 0.00 88 1016.3
20260504213009 13 280 8.0 19.3 0.00 0.03 0.00 88 1016.0
20260504212009 13 283 8.0 20.9 0.00 0.03 0.00 87 1015.8
20260504211009 13 271 11.3 20.9 0.00 0.03 0.00 87 1015.6
20260504210008 13 282 9.7 19.3 0.00 0.03 0.00 87 1015.5
20260504205009 13 291 11.3 22.5 0.00 0.03 0.00 86 1015.4
20260504204009 13 286 11.3 20.9 0.00 0.03 0.00 85 1015.2
20260504203009 13 288 11.3 20.9 0.00 0.03 0.00 85 1015.1
20260504202011 13 293 11.3 19.3 0.00 0.03 0.00 85 1014.9
20260504201009 13 278 9.7 25.7 0.00 0.03 0.00 85 1014.7
20260504200009 13 284 9.7 22.5 0.00 0.03 0.00 85 1014.5
20260504195009 13 301 9.7 19.3 0.00 0.03 0.00 84 1014.4
20260504194009 13 282 11.3 19.3 0.00 0.03 0.00 84 1014.4
20260504193009 13 283 9.7 20.9 0.00 0.03 0.00 83 1014.3
20260504192009 13 280 11.3 25.7 0.00 0.03 0.00 83 1014.2
20260504191009 13 283 14.5 24.1 0.00 0.03 0.00 84 1014.0
20260504190009 13 286 14.5 24.1 0.00 0.03 0.00 84 1013.9
20260504185009 13 284 11.3 24.1 0.00 0.03 0.00 84 1013.8
20260504184009 13 280 11.3 24.1 0.00 0.03 0.00 84 1013.6
20260504183010 13 276 11.3 25.7 0.00 0.03 0.00 84 1013.5
20260504182009 13 278 11.3 22.5 0.00 0.03 0.00 84 1013.4
20260504181009 13 275 14.5 25.7 0.00 0.03 0.00 83 1013.2
20260504180009 13 283 14.5 25.7 0.00 0.03 0.00 83 1013.1
20260504175009 13 288 12.9 25.7 0.00 0.03 0.00 82 1013.1
20260504174009 13 277 16.1 35.4 0.00 0.03 0.00 81 1013.0
20260504173009 14 282 16.1 29.0 0.00 0.03 0.00 81 1012.8
20260504172009 14 274 17.7 32.2 0.00 0.03 0.00 81 1012.8
20260504171009 14 282 19.3 33.8 0.00 0.03 0.00 80 1012.6
20260504151009 14 285 17.7 32.2 0.00 0.03 0.00 79 1012.0
20260504141009 15 294 14.5 37.0 0.00 0.03 0.00 75 1011.4